User: anonymous   Login
Location: Cz?stochówka
(50.8142°N, 19.0915°E)
Time: 23:02:24
(UTC+00:00)
Language:

Cosmos 1328 - Orbit

View from above orbital plane
View from above orbital plane
View from above satellite
View from above satellite

Ground track
Ground track

The orbit is defined by the following mean orbital elements,

1 12987U          26074.48478006 +.00000000 +00000-0 +32107-3 0 00002
2 12987  82.4942 344.6180 0011575 149.1234 211.0691 15.34053789    02
Epoch (UTC): 15 March 2026 11:38:04
Eccentricity: 0.0011575
inclination: 82.4942°
perigee height: 456 km
apogee height: 472 km
right ascension of ascending node: 344.6180°
argument of perigee: 149.1234°
revolutions per day: 15.34053789
mean anomaly at epoch: 211.0691°

The dashed part of the orbit path shows where the satellite is in the earth's shadow,  

DLR